STARLINK-5406, 54860

Orbit data source: Space-Track

STARLINK-5406, 54860 is a payload satellite owned by SpaceX/Seattle (US) in LEO that was launched on Wed, 28 Dec 2022 UTC via an FALCON 9 launch vehicle from the Air Force Eastern Test Range (AFETR). Payload-class satellites include a variety of spacecraft equipped with specific instruments for various scientific and technological missions. These include communications satellites like Starlink; space stations such as the ISS; scientific satellites like the Hubble; Earth observation satellites from companies like Planet Labs, Umbra, and HawkEye 360; GPS; miniature CubeSats for education and research; and military/defense satellites.

Loading next visibility...
Identifier
54860, 2022-177AS
Orbit
LEO
Country
Flag of USUS
Related business
Manufacturer
SpaceX/Seattle
Mission
Operational Commercial Communications
Bus & Motor
STARLINK, Unknown motor
Mass
305 kg wet, ~290 kg dry
Launch date (UTC)
2022-12-28 (3 years ago)
Launch vehicle
FALCON 9
Launch site
Air Force Eastern Test Range (AFETR)
Object type
Payload
Rocket body
Debris
Shape & HBR
Box + 1 Pan, 10.1 m
Radar Cross Section
13.562 m², Large (>1 m²)

Expand to show TLE details & history
Last TLE update: 3 days ago

TLE from 3 days ago
0 STARLINK-5406
1 54860U 22177AS  26170.72808002  .00000384  00000-0  23486-4 0  9997
2 54860  43.0019 265.5235 0001775 270.0336  90.0312 15.27578824192692
Epoch: 2026-06-19T17:28Z
TLE epoch observation values (Epoch: 2026-06-19T17:28:26.113Z)
Latitude
-0.00005°
Longitude
95.46175°
Altitude
482.829 km
Speed
7.626 km/s
True Right ascension
17h 42m 05s
True Declination
0° 00' 00"
Sunlit
Object was in full shadow at epoch
Visualization orbit readout
Latitude
Unknown
Longitude
Unknown
Altitude
Unknown
Speed
Unknown
Apparent Right ascension
Unknown
Apparent Declination
Unknown
Sunlit
N/A
Visualization observer readout
Local Sidereal Time
21:24:24
Azimuth
Unknown
Elevation
Unknown
Doppler factor
Unknown
Orbital elements
Apogee altitude
486.216 km
Perigee altitude
483.779 km
Semi-major axis
6,863.134 km
Eccentricity
0.00018
Inclination
43.0019°
RAAN
265.5235°
Arg. of periapsis
270.0336°
True anomaly
90.05154°
Mean anomaly
90.0312°
Eccentric anomaly
90.04137°
Mean motion
3.81733 °/min
Orbital period
94.31 mins
BSTAR
0.000023486
Loading maneuver chart data...
Computing Atmospheric mass density...
Loading historical data...
Loading historical data...
Loading historical data...
Loading historical data...
Loading historical data...
Loading historical data...
Loading historical data...

Documentation

Showing up to 5 results
|